Weather History for Kendall, FL

Change the Weather History Date:

Tuesday, April 9, 2013

  Actual Average Record
Temperature  
Mean Temperature 72 °F -  
Max Temperature 82 °F 83 °F 91 °F (2004)
Min Temperature 63 °F 63 °F 51 °F (2009)
Cooling Degree Days 8    
Growing Degree Days 22 (Base 50)    
Moisture  
Dew Point 64 °F    
Average Humidity 73    
Maximum Humidity 97    
Minimum Humidity 58    
Precipitation  
Precipitation 0.00 in - - ()
Sea Level Pressure  
Sea Level Pressure 30.10 in    
Wind  
Wind Speed 7 mph (East)    
Max Wind Speed 18 mph    
Max Gust Speed -    
Visibility 10 miles    
Events      
Averages and records for this station are not official NWS values.
T = Trace of Precipitation, MM = Missing Value Source: NWS Daily Summary

Daily Weather History Graph

Daily Weather History Graph

Search for Another Location

Airport:

Trip Planner

Search our weather history database for the weather conditions in past years. The results will help you decide how hot, cold, wet, or windy it might be!

Date:

Astronomy

Apr. 09, 2013 Rise Set
Actual Time 7:04 AM EDT 7:42 PM EDT
Civil Twilight 6:41 AM EDT 8:05 PM EDT
Nautical Twilight 6:13 AM EDT 8:32 PM EDT
Astronomical Twilight 5:46 AM EDT 9:00 PM EDT
Moon 6:23 AM EDT (4/9) 7:15 PM EDT (4/9)
Length of Visible Light 13h 24m
Length of Day
12h 37m
Waning Crescent, 1% of the Moon is Illuminated
Apr 9
Waning Crescent
Apr 10
New
Apr 18
First Quarter
Apr 25
Full
May 2
Last Quarter

Hourly Weather History & Observations

Time (EDT) Temp. Heat Index Dew Point Humidity Pressure Visibility Wind Dir Wind Speed Gust Speed Precip Events Conditions
12:53 AM 66.9 °F - 60.1 °F 79% 30.12 in 10.0 mi East 4.6 mph - N/A   Clear
1:53 AM 66.0 °F - 60.1 °F 81% 30.10 in 10.0 mi Calm Calm - N/A   Clear
2:53 AM 64.9 °F - 60.1 °F 84% 30.08 in 10.0 mi Calm Calm - N/A   Partly Cloudy
3:53 AM 66.0 °F - 62.1 °F 87% 30.06 in 10.0 mi East 5.8 mph - N/A   Clear
4:53 AM 66.0 °F - 62.1 °F 87% 30.07 in 10.0 mi Calm Calm - N/A   Clear
5:53 AM 64.9 °F - 63.0 °F 93% 30.08 in 10.0 mi Calm Calm - N/A   Clear
6:53 AM 63.0 °F - 62.1 °F 97% 30.09 in 10.0 mi Calm Calm - N/A   Clear
7:53 AM 70.0 °F - 66.0 °F 87% 30.10 in 10.0 mi East 3.5 mph - N/A   Clear
8:53 AM 77.0 °F - 66.9 °F 71% 30.11 in 10.0 mi ESE 15.0 mph - N/A   Partly Cloudy
9:53 AM 77.0 °F - 66.0 °F 69% 30.14 in 10.0 mi ESE 10.4 mph - N/A   Mostly Cloudy
10:53 AM 80.1 °F 82.3 °F 66.9 °F 64% 30.14 in 10.0 mi East 15.0 mph - N/A   Mostly Cloudy
11:53 AM 80.1 °F 81.9 °F 64.9 °F 60% 30.15 in 10.0 mi ESE 12.7 mph - N/A   Mostly Cloudy
12:53 PM 81.0 °F 83.0 °F 66.0 °F 60% 30.13 in 10.0 mi ESE 18.4 mph - N/A   Mostly Cloudy
1:53 PM 80.1 °F 81.9 °F 64.9 °F 60% 30.12 in 10.0 mi ESE 15.0 mph - N/A   Mostly Cloudy
2:53 PM 82.0 °F 84.1 °F 66.0 °F 58% 30.10 in 10.0 mi ESE 17.3 mph - N/A   Scattered Clouds
3:53 PM 81.0 °F 83.0 °F 66.0 °F 60% 30.09 in 10.0 mi ESE 15.0 mph - N/A   Partly Cloudy
4:53 PM 80.1 °F 81.9 °F 64.9 °F 60% 30.08 in 10.0 mi ESE 16.1 mph - N/A   Partly Cloudy
5:53 PM 79.0 °F - 64.9 °F 62% 30.08 in 10.0 mi East 17.3 mph - N/A   Clear
6:53 PM 77.0 °F - 64.9 °F 66% 30.08 in 10.0 mi East 16.1 mph - N/A   Clear
7:53 PM 75.0 °F - 66.0 °F 73% 30.09 in 10.0 mi East 13.8 mph - N/A   Clear
8:53 PM 73.9 °F - 64.9 °F 73% 30.10 in 10.0 mi ENE 10.4 mph - N/A   Clear
9:53 PM 73.9 °F - 64.9 °F 73% 30.11 in 10.0 mi East 10.4 mph - N/A   Clear
10:53 PM 73.0 °F - 64.9 °F 76% 30.11 in 10.0 mi East 10.4 mph - N/A   Clear
11:53 PM 73.0 °F - 66.0 °F 79% 30.10 in 10.0 mi East 11.5 mph - N/A   Clear